| time (UTC) | temp C | wind direction | speed KPH | gust KPH | rain 1hr cm | rain 24hr cm | rain mn cm | humidity % | barometer mb |
| 20260509150029 | 17 | 276 | 1.6 | 14.5 | 0.00 | 0.00 | 0.00 | 76 | 988.3 |
| 20260509143029 | 16 | 280 | 4.8 | 16.1 | 0.00 | 0.00 | 0.00 | 81 | 988.0 |
| 20260509133029 | 14 | 245 | 3.2 | 19.3 | 0.00 | 0.00 | 0.00 | 88 | 987.9 |
| 20260509130030 | 13 | 216 | 9.7 | 16.1 | 0.00 | 0.00 | 0.00 | 91 | 988.1 |
| 20260509123029 | 12 | 256 | 3.2 | 14.5 | 0.00 | 0.00 | 0.00 | 93 | 987.7 |
| 20260509120031 | 12 | 215 | 3.2 | 8.0 | 0.00 | 0.00 | 0.00 | 96 | 987.8 |
| 20260509113029 | 11 | 215 | 1.6 | 4.8 | 0.00 | 0.00 | 0.00 | 97 | 986.7 |
| 20260509100030 | 11 | 227 | 1.6 | 6.4 | 0.00 | 0.00 | 0.00 | 96 | 987.6 |
| 20260509093029 | 11 | 227 | 3.2 | 4.8 | 0.00 | 0.00 | 0.00 | 95 | 987.7 |
| 20260509090029 | 12 | 227 | 1.6 | 6.4 | 0.00 | 0.00 | 0.00 | 94 | 988.1 |
| 20260509083029 | 12 | 227 | 1.6 | 6.4 | 0.00 | 0.00 | 0.00 | 94 | 988.0 |
| 20260509070030 | 12 | 227 | 3.2 | 6.4 | 0.00 | 0.00 | 0.00 | 91 | 988.5 |
| 20260509063031 | 12 | 227 | 1.6 | 4.8 | 0.00 | 0.00 | 0.00 | 89 | 988.7 |
| 20260509060029 | 13 | 228 | 3.2 | 8.0 | 0.00 | 0.00 | 0.00 | 88 | 989.0 |
| 20260509053029 | 13 | 227 | 3.2 | 6.4 | 0.00 | 0.00 | 0.00 | 87 | 989.3 |
| 20260509050029 | 13 | 227 | 1.6 | 9.7 | 0.00 | 0.00 | 0.00 | 85 | 989.2 |
| 20260509043029 | 14 | 227 | 0.0 | 9.7 | 0.00 | 0.00 | 0.00 | 84 | 989.3 |
| 20260509040029 | 15 | 263 | 4.8 | 11.3 | 0.00 | 0.00 | 0.00 | 82 | 989.6 |
| 20260509033029 | 15 | 258 | 3.2 | 9.7 | 0.00 | 0.00 | 0.00 | 80 | 989.8 |
| 20260509030029 | 16 | 257 | 4.8 | 16.1 | 0.00 | 0.00 | 0.00 | 76 | 989.7 |
| 20260509023029 | 16 | 249 | 3.2 | 11.3 | 0.00 | 0.00 | 0.00 | 71 | 989.9 |
| 20260509020029 | 17 | 215 | 4.8 | 9.7 | 0.00 | 0.00 | 0.00 | 70 | 989.6 |
| 20260509013029 | 17 | 244 | 3.2 | 14.5 | 0.00 | 0.00 | 0.00 | 68 | 989.1 |
| 20260509010029 | 18 | 240 | 1.6 | 11.3 | 0.00 | 0.00 | 0.00 | 58 | 989.4 |
| 20260509003029 | 18 | 240 | 1.6 | 12.9 | 0.00 | 0.00 | 0.00 | 55 | 989.1 |
| 20260509000029 | 20 | 243 | 1.6 | 17.7 | 0.00 | 0.00 | 0.00 | 52 | 989.2 |
| 20260508233030 | 20 | 258 | 9.7 | 20.9 | 0.00 | 0.00 | 0.00 | 49 | 989.3 |
| 20260508230029 | 21 | 236 | 4.8 | 12.9 | 0.00 | 0.00 | 0.00 | 49 | 989.3 |
| 20260508223030 | 21 | 230 | 0.0 | 9.7 | 0.00 | 0.00 | 0.00 | 50 | 989.5 |
| 20260508220029 | 22 | 238 | 1.6 | 16.1 | 0.00 | 0.00 | 0.00 | 45 | 989.6 |
| 20260508213029 | 23 | 227 | 4.8 | 11.3 | 0.00 | 0.00 | 0.00 | 44 | 989.7 |
| 20260508210030 | 22 | 247 | 3.2 | 14.5 | 0.00 | 0.00 | 0.00 | 48 | 989.9 |
| 20260508203030 | 21 | 210 | 4.8 | 9.7 | 0.00 | 0.00 | 0.00 | 57 | 990.2 |
| 20260508193029 | 21 | 220 | 0.0 | 9.7 | 0.00 | 0.00 | 0.00 | 61 | 991.1 |
| 20260508190028 | 20 | 227 | 4.8 | 9.7 | 0.00 | 0.00 | 0.00 | 56 | 991.1 |
| 20260508183028 | 21 | 225 | 3.2 | 6.4 | 0.00 | 0.00 | 0.00 | 58 | 991.4 |
| 20260508180029 | 20 | 226 | 3.2 | 6.4 | 0.00 | 0.00 | 0.00 | 60 | 991.7 |
| 20260508173030 | 20 | 226 | 3.2 | 6.4 | 0.00 | 0.00 | 0.00 | 62 | 991.9 |
| 20260508163030 | 18 | 227 | 0.0 | 6.4 | 0.00 | 0.00 | 0.00 | 72 | 993.1 |
| 20260508160029 | 17 | 227 | 0.0 | 6.4 | 0.00 | 0.00 | 0.00 | 75 | 993.3 |